Regional Weather Roundup
Issued by NWS

Home | Current Version | Previous Version | Text Only | Print | Product List | Glossary Off
Versions: 1 2 3 4 5 6 7 8 9 10 11 12 13 14 15 16 17 18 19 20 21 22 23 24 25 26 27 28 29 30 31 32 33 34 35 36 37 38 39 40 41 42 43 44 45 46 47 48 49 50

662
ASUS43 KLMK 231810
RWRKY
KENTUCKY REGIONAL WEATHER ROUNDUP
NATIONAL WEATHER SERVICE LOUISVILLE KY
100 PM EST MON JAN 23 2017

NOTE "FAIR" INDICATES FEW OR NO CLOUDS BELOW 12,000 FEET
WITH NO SIGNIFICANT WEATHER AND/OR OBSTRUCTIONS TO VISIBILITY.

KYZ001>023-026-027-061>063-070>075-231900-
WESTERN AND SOUTH CENTRAL KENTUCKY

CITY           SKY/WX    TMP DP  RH WIND       PRES   REMARKS
PADUCAH        CLOUDY    46  36  68 N12       29.76F
HENDERSON      CLOUDY    43  34  70 N15       29.72F
OWENSBORO      CLOUDY    44  39  82 NW17G25   29.70S
HOPKINSVILLE   CLOUDY    44  38  78 NW17G24   29.70F
BOWLING GREEN  CLOUDY    46  41  82 NW15G21   29.65R
GLASGOW        CLOUDY    46  46 100 NW12G18   29.61R FOG
$$

KYZ024-025-028>034-038-045-046-053-231900-
NORTH CENTRAL KENTUCKY

CITY           SKY/WX    TMP DP  RH WIND       PRES   REMARKS
LOUISVILLE/SDF CLOUDY    50  43  77 NW15      29.59S
LOUISVILLE/LOU CLOUDY    50  43  77 NW13G22   29.59S
FORT KNOX      CLOUDY    47  44  87 NW13G20   29.58F
$$

KYZ035>037-039>044-047>052-055>060-089>105-231900-
NORTHEAST KENTUCKY

CITY           SKY/WX    TMP DP  RH WIND       PRES   REMARKS
LEXINGTON      LGT RAIN  47  45  93 N15G23    29.52S FOG
COVINGTON      CLOUDY    48  46  93 N14       29.54F FOG
FRANKFORT      CLOUDY    49  44  83 NW10      29.53S HAZE
$$

KYZ054-064>069-076>088-106>120-231900-
SOUTHEAST KENTUCKY

CITY           SKY/WX    TMP DP  RH WIND       PRES   REMARKS
JACKSON        LGT RAIN  50  47  89 VRB6      29.41S FOG
LONDON         CLOUDY    50  46  86 NW14G25   29.45R
SOMERSET       DRIZZLE   50  48  93 N15       29.51S
MIDDLESBORO    RAIN      54  50  89 NW12G28   29.41R
MONTICELLO     CLOUDY    52  48  86 N17G28    29.52R
$$





USA.gov is the U.S. government's official web portal to all federal, state and local government web resources and services.